Location: Tucson
(32.2220°N, 110.9260°W)
Time: 11:40:54
(UTC-07:00)

Envisat - Visible Passes

Search period start: 22 July 2018 00:00
Search period end: 01 August 2018 00:00
Orbit: 764 x 766 km, 98.2° (Epoch: 22 July)

Date Brightness Start Highest point End Pass type
(mag) Time Alt. Az. Time Alt. Az. Time Alt. Az.
22 Jul 4.3 20:11:51 10° S 20:16:38 42° W 20:21:26 10° NNW visible
24 Jul 5.3 20:38:24 10° SSW 20:42:19 22° W 20:46:15 10° NW visible
25 Jul 3.8 20:00:30 10° S 20:05:27 55° W 20:10:26 10° NNW visible
26 Jul 5.8 21:06:24 10° WSW 21:08:05 11° W 21:09:45 10° WNW visible
27 Jul 4.9 20:26:43 10° SSW 20:31:05 29° W 20:35:29 10° NW visible
28 Jul 3.3 19:49:14 10° S 19:54:16 72° WSW 19:59:21 10° NNW visible
29 Jul 5.6 20:53:52 10° SW 20:56:49 15° W 20:59:46 10° WNW visible
30 Jul 4.4 20:15:12 10° SSW 20:19:53 38° W 20:24:35 10° NNW visible
31 Jul 3.0 19:38:03 10° SSE 19:43:07 87° ENE 19:48:13 10° NNW visible
